User: anonymous   Login
Location: Unspecified
(0.0000°N, 0.0000°E)
Time: 15:10:39
(UTC+00:00)
Language:

Kosmos-2184 - Orbit

View from above orbital plane
View from above orbital plane
View from above satellite
View from above satellite

Ground track
Ground track

The orbit data is extracted from the following two-line orbital elements,

1 21937U 92020A   18051.97165330  .00000030  00000-0  16773-4 0  9995
2 21937  82.9330 202.2741 0032473 322.5815 156.3010 13.73148699295599
Epoch (UTC): 20 February 2018 23:19:10
Eccentricity: 0.0032473
inclination: 82.9330°
perigee height: 964 km
apogee height: 1012 km
right ascension of ascending node: 202.2741°
argument of perigee: 322.5815°
revolutions per day: 13.73148699
mean anomaly at epoch: 156.3010°
orbit number at epoch: 29559

The dashed part of the orbit path shows where the satellite is in the earth's shadow,  

DLR